{"data":{"norad_id":57634,"intl_designator":"2023-122C","name":"STARLINK-30323","alt_names":[],"object_type":"PAYLOAD","status":"ACTIVE","operator":null,"country":"US","launch_date":"2023-08-17","launch_site_code":"AFETR","launch_vehicle":null,"mission":null,"orbit_class":"UNKNOWN","rcs_meters":null,"size_class":null,"mass_kg":null,"dimensions":null,"purposes":["comms"],"wikipedia_slug":null,"has_3d_model":false,"image_url":null,"decayed_at":null,"tle_current":{"epoch":"2026-05-25T00:42:46.595808Z","epoch_age_seconds":76449,"freshness":"FRESH","line1":"1 57634U 23122C   26145.02970597  .00001643  00000+0  69195-4 0  9999","line2":"2 57634  43.0043  10.2192 0001203 272.1489  87.9225 15.27582865154018","mean_motion":15.27582865,"eccentricity":0.0001203,"inclination_deg":43.0043,"raan_deg":10.2192,"arg_perigee_deg":272.1489,"mean_anomaly_deg":87.9225,"bstar":6.9195e-5,"rev_number":15401,"period_min":94.266571915233,"perigee_km":482.21511755706,"apogee_km":483.8659168677,"semimajor_km":6861.1775172124,"source":"CELESTRAK","updated_at":"2026-05-25T13:38:18.362283Z"}}}